FW6647 Weather Reports


time (UTC)temp
F
wind
direction
speed
knots
gust
knots
rain 1hr
in
rain 24hr
in
rain mn
in
humidity
%
barometer
mb
20260503224521 57 247 2.6 7.0 0.00 0.00 0.00 50 1012.8
20260503223020 57 242 1.7 8.7 0.00 0.00 0.00 50 1012.9
20260503221529 57 260 3.5 9.6 0.00 0.00 0.00 49 1013.0
20260503220020 57 249 2.6 7.8 0.00 0.00 0.00 49 1012.9
20260503214519 57 249 2.6 10.4 0.00 0.00 0.00 50 1013.0
20260503213028 57 220 2.6 8.7 0.00 0.00 0.00 49 1012.8
20260503211519 57 241 3.5 13.0 0.00 0.00 0.00 48 1012.9
20260503210018 59 254 2.6 10.4 0.00 0.00 0.00 43 1012.9
20260503204518 59 258 5.2 11.3 0.00 0.00 0.00 42 1013.1
20260503203016 59 289 3.5 11.3 0.00 0.00 0.00 40 1013.1
20260503201525 59 277 6.1 11.3 0.00 0.00 0.00 38 1013.4
20260503200011 60 235 6.1 13.0 0.00 0.00 0.00 39 1013.6
20260503194508 59 264 6.1 15.6 0.00 0.00 0.00 42 1013.8
20260503193007 59 259 6.1 12.2 0.00 0.00 0.00 43 1014.0
20260503191505 58 299 6.1 13.0 0.00 0.00 0.00 43 1014.0
20260503190002 58 243 7.0 16.5 0.00 0.00 0.00 43 1014.3
20260503184502 57 255 7.8 13.0 0.00 0.00 0.00 45 1014.4
20260503183110 58 292 7.0 12.2 0.00 0.00 0.00 45 1014.6
20260503181623 57 359 6.1 13.0 0.00 0.00 0.00 44 1014.7
20260503180131 57 243 6.1 11.3 0.00 0.00 0.00 44 1014.8
20260503174559 57 249 5.2 11.3 0.00 0.00 0.00 45 1015.0
20260503173059 57 285 5.2 9.6 0.00 0.00 0.00 47 1015.2
20260503171554 56 256 4.3 9.6 0.00 0.00 0.00 50 1015.3
20260503120106 40 210 0.9 5.2 0.00 0.00 0.00 82 1017.3
20260503081522 35 206 0.9 4.3 0.00 0.00 0.00 83 1017.2
20260503071525 35 193 0.0 4.3 0.00 0.00 0.00 83 1017.3
20260503054515 35 195 0.9 4.3 0.00 0.00 0.00 84 1017.6
20260503053010 35 210 0.9 2.6 0.00 0.00 0.00 84 1017.8
20260503051507 35 208 0.0 1.7 0.00 0.00 0.00 83 1017.8
20260503050006 35 223 0.9 3.5 0.00 0.00 0.00 83 1017.9
20260503044502 35 359 0.0 2.6 0.00 0.00 0.00 82 1017.9
20260503043001 36 185 0.0 2.6 0.00 0.00 0.00 82 1017.9
20260503041559 36 359 0.0 2.6 0.00 0.00 0.00 80 1018.1
20260503040104 36 200 0.9 2.6 0.00 0.00 0.00 79 1018.1
20260503034558 37 359 0.0 3.5 0.00 0.00 0.00 78 1018.1
20260503033050 37 359 0.9 2.6 0.00 0.00 0.00 77 1018.1
20260503031548 38 193 0.0 3.5 0.00 0.00 0.00 76 1018.2
20260503030050 38 197 0.9 4.3 0.00 0.00 0.00 75 1018.2
20260503024544 39 201 0.9 3.5 0.00 0.00 0.00 73 1018.3
20260503023046 40 359 0.9 2.6 0.00 0.00 0.00 70 1018.4
20260503021542 41 228 0.0 0.9 0.00 0.00 0.00 68 1018.4
20260503020042 41 359 0.0 2.6 0.00 0.00 0.00 67 1018.3
20260503014550 42 359 0.0 1.7 0.00 0.00 0.00 67 1018.3
20260503013042 42 359 0.0 2.6 0.00 0.00 0.00 67 1018.2
20260503011543 42 359 0.9 6.1 0.00 0.00 0.00 67 1018.2
20260503010040 42 359 0.9 3.5 0.00 0.00 0.00 68 1018.2
20260503004543 42 359 0.9 3.5 0.00 0.00 0.00 67 1018.2
20260503003047 42 359 0.0 2.6 0.00 0.00 0.00 67 1018.2
20260503001547 42 256 0.9 5.2 0.00 0.00 0.00 65 1018.1
20260503000046 42 265 1.7 4.3 0.00 0.00 0.00 65 1018.1
20260502234551 42 260 0.9 4.3 0.00 0.00 0.00 65 1018.1
20260502233038 43 253 1.7 7.0 0.00 0.00 0.00 65 1018.1
20260502231537 43 359 2.6 7.0 0.00 0.00 0.00 64 1018.1
20260502230036 43 359 0.9 7.8 0.00 0.00 0.00 65 1018.1